Las Vegas, NV

5:36 AM PDT on June 20, 2018 (GMT -0700)
McCarran International

Weather History for KLAS - February, 2014

Change the Weather History Date:

Tuesday, February 11, 2014

  Actual Average Record
Temperature  
Mean Temperature 57 °F 52 °F  
Max Temperature 69 °F 62 °F 79 °F (1971)
Min Temperature 45 °F 43 °F 22 °F (1939)
Degree Days  
Heating Degree Days 8 13  
Month to date heating degree days 158 153  
Since 1 July heating degree days 1322 1505  
Cooling Degree Days 0 0  
Month to date cooling degree days 0 0  
Year to date cooling degree days 0 0  
Growing Degree Days 7 (Base 50)    
Moisture  
Dew Point 26 °F    
Average Humidity 33    
Maximum Humidity 45    
Minimum Humidity 20    
Precipitation  
Precipitation 0.00 in 0.03 in 0.78 in (2005)
Month to date precipitation T 0.25  
Year to date precipitation T 0.79  
Snow  
Snow 0.00 in 0.00 in T in (1949)
Month to date snowfall 0.0 0.0  
Since 1 July snowfall 0.0 0.2  
Snow Depth 0.00 in    
Sea Level Pressure  
Sea Level Pressure 30.07 in    
Wind  
Wind Speed 6 mph (South)    
Max Wind Speed 13 mph    
Max Gust Speed 14 mph    
Visibility 10 miles    
Events      
T = Trace of Precipitation, MM = Missing Value Source: NWS Daily Summary

Daily Weather History Graph

Daily Weather History Graph

Search for Another Location

Airport or City:

Astronomy

Feb. 11, 2014 Rise Set
Actual Time 6:32 AM PST 5:18 PM PST
Civil Twilight 6:05 AM PST 5:44 PM PST
Nautical Twilight 5:35 AM PST 6:14 PM PST
Astronomical Twilight 5:05 AM PST 6:44 PM PST
Moon 2:44 PM PST (2/11) 4:09 AM PST (2/11)
Length of Visible Light 11h 38m
Length of Day
10h 45m
Waxing Gibbous, 91% of the Moon is Illuminated
Feb 11
Waxing Gibbous
Feb 14
Full
Feb 22
Last Quarter
Mar 1
New
Mar 8
First Quarter

Hourly Weather History & Observations

Time (PST) Temp. Windchill Dew Point Humidity Pressure Visibility Wind Dir Wind Speed Gust Speed Precip Events Conditions
12:56 AM 54.0 °F - 27.0 °F 35% 30.04 in 10.0 mi South 9.2 mph - N/A   Mostly Cloudy
1:56 AM 55.9 °F - 25.0 °F 30% 30.04 in 10.0 mi NNE 5.8 mph - N/A   Mostly Cloudy
2:56 AM 54.0 °F - 27.0 °F 35% 30.04 in 10.0 mi SSE 4.6 mph - N/A   Mostly Cloudy
3:56 AM 48.9 °F - 27.0 °F 43% 30.04 in 10.0 mi SSW 10.4 mph - N/A   Mostly Cloudy
4:56 AM 48.9 °F - 27.0 °F 43% 30.05 in 10.0 mi SW 6.9 mph - N/A   Scattered Clouds
5:56 AM 46.0 °F 40.6 °F 27.0 °F 47% 30.07 in 10.0 mi SSW 11.5 mph - N/A   Partly Cloudy
6:56 AM 46.9 °F - 26.1 °F 44% 30.10 in 10.0 mi SSW 8.1 mph - N/A   Partly Cloudy
7:56 AM 51.1 °F - 27.0 °F 39% 30.09 in 10.0 mi SSW 8.1 mph - N/A   Partly Cloudy
8:56 AM 55.0 °F - 27.0 °F 34% 30.11 in 10.0 mi South 6.9 mph - N/A   Partly Cloudy
9:56 AM 57.9 °F - 27.0 °F 31% 30.11 in 10.0 mi SSE 3.5 mph - N/A   Partly Cloudy
10:56 AM 62.1 °F - 26.1 °F 25% 30.10 in 10.0 mi Calm Calm - N/A   Scattered Clouds
11:56 AM 63.0 °F - 26.1 °F 25% 30.08 in 10.0 mi Calm Calm - N/A   Mostly Cloudy
12:56 PM 64.9 °F - 25.0 °F 22% 30.04 in 10.0 mi Calm Calm - N/A   Scattered Clouds
1:56 PM 64.9 °F - 25.0 °F 22% 30.01 in 10.0 mi Calm Calm - N/A   Scattered Clouds
2:56 PM 66.9 °F - 24.1 °F 20% 30.00 in 10.0 mi Calm Calm - N/A   Scattered Clouds
3:56 PM 66.0 °F - 24.1 °F 20% 30.02 in 10.0 mi SE 4.6 mph - N/A   Scattered Clouds
4:56 PM 64.9 °F - 23.0 °F 20% 30.03 in 10.0 mi SSE 4.6 mph - N/A   Scattered Clouds
5:56 PM 63.0 °F - 25.0 °F 24% 30.06 in 10.0 mi SSE 4.6 mph - N/A   Partly Cloudy
6:56 PM 60.1 °F - 25.0 °F 26% 30.06 in 10.0 mi South 4.6 mph - N/A   Clear
7:56 PM 57.9 °F - 26.1 °F 30% 30.07 in 10.0 mi SSW 8.1 mph - N/A   Clear
8:56 PM 55.9 °F - 26.1 °F 32% 30.09 in 10.0 mi SSW 8.1 mph - N/A   Clear
9:56 PM 55.0 °F - 26.1 °F 33% 30.11 in 10.0 mi South 8.1 mph - N/A   Clear
10:56 PM 52.0 °F - 25.0 °F 35% 30.11 in 10.0 mi South 9.2 mph - N/A   Clear
11:56 PM 51.1 °F - 24.1 °F 35% 30.12 in 10.0 mi SSW 8.1 mph - N/A   Clear